Wind_Speed
3 4 5 8 11 13 12 10 6 1 5 8 6 5 6 5 4 4 4 5 4 5 5 9 10 15 18 13 10 8 4 7 12 12 10 9 8 8 8 9 10 11 12 19 26 23 23 28 30 30 31 31 32 33 33 34 36 37 37 38 40 40 39 39 38 38 37 37 35 34 35 35 35 35 35 35 35 34 33 32 32 33 31 29 28 26
3 5 8 10 10 9 10 8 4 1 5 8 7 6 5 6 5 4 5 3 3 3 4 7 8 13 17 14 11 6 4 10 14 13 11 11 10 9 9 11 11 9 9 14 18 17 21 26 28 30 30 30 32 34 35 35 37 38 38 39 40 39 39 40 40 40 39 39 38 36 36 36 36 36 36 36 36 35 34 33 34 35 33 31 29 28
3 7 12 8 5 6 6 7 5 2 4 6 5 5 6 4 1 4 4 2 2 4 4 6 6 10 14 14 11 7 8 13 13 10 11 11 10 11 12 11 10 9 9 11 13 14 20 25 27 29 30 32 35 36 37 37 37 37 38 40 39 39 41 41 42 41 41 40 39 37 36 36 35 35 36 37 36 35 35 35 34 35 36 34 32 30
4 7 10 6 6 7 6 5 6 2 2 4 4 5 5 3 3 3 4 2 3 3 2 3 5 7 10 11 11 10 11 13 13 11 11 10 11 14 13 11 10 12 13 13 12 13 17 22 24 27 30 33 35 35 35 37 37 38 39 41 40 40 41 42 42 42 41 39 37 37 36 35 34 34 35 35 35 35 35 35 35 36 37 36 35 33
8 4 6 9 7 8 6 6 8 5 3 4 5 6 4 4 7 5 2 1 1 1 1 1 6 6 7 10 13 9 6 9 12 9 11 12 13 13 12 12 12 13 13 13 13 12 13 18 23 27 32 34 35 35 36 38 39 40 41 41 40 40 41 41 41 41 40 37 35 34 32 30 29 30 30 31 34 36 36 37 37 38 38 38 38 36
12 5 6 11 8 8 8 8 9 8 5 5 6 8 6 6 8 5 3 2 2 3 2 1 3 6 5 8 12 8 3 7 8 6 12 14 12 11 11 13 14 13 14 13 13 12 11 17 22 26 31 32 33 36 38 40 41 42 41 40 40 40 41 41 41 40 39 37 35 33 31 29 28 28 30 33 35 36 37 39 38 37 37 39 40 39
8 7 6 8 8 10 10 8 8 9 6 6 6 8 7 7 7 5 5 3 1 4 3 2 4 6 5 5 8 7 6 9 8 7 12 14 11 10 11 13 13 13 14 12 13 12 11 16 20 23 28 31 34 37 39 40 41 42 41 40 41 41 41 41 40 40 40 39 37 36 36 35 32 31 33 35 35 34 36 37 36 37 37 39 40 41
8 12 8 8 10 10 9 9 11 12 8 6 5 10 9 8 7 5 5 4 3 2 2 1 3 5 7 6 7 7 8 11 11 11 13 12 11 11 12 13 13 13 13 12 13 12 12 16 20 24 29 34 37 38 38 39 41 40 41 42 42 42 41 40 40 40 41 41 39 38 37 37 37 36 35 33 33 34 34 34 35 36 37 38 40 41
9 15 14 14 12 8 11 13 12 13 9 6 6 10 8 5 5 3 4 3 1 2 3 2 3 3 8 5 4 6 9 11 13 16 16 13 13 14 13 13 12 13 13 12 12 12 12 16 22 27 31 35 38 38 38 41 41 40 42 42 41 41 41 40 40 41 42 42 41 40 38 38 37 37 35 32 32 33 33 33 35 35 36 37 38 40
6 13 15 15 11 9 14 12 10 13 10 4 5 7 5 5 5 3 3 3 2 1 7 6 5 4 8 5 4 3 6 9 11 13 14 14 15 14 13 13 12 11 10 9 10 11 14 20 26 29 31 33 36 38 40 41 40 40 40 40 40 40 40 40 41 41 42 42 41 41 40 39 38 36 33 32 31 32 32 33 34 34 35 36 37 39
1 4 8 10 9 10 9 5 7 10 5 2 5 5 5 4 4 3 2 2 1 4 10 10 10 7 8 4 6 5 5 8 9 9 12 14 13 12 12 11 10 8 7 8 9 10 15 21 25 26 27 31 34 36 37 38 38 39 38 38 39 41 40 39 40 41 42 42 42 43 42 41 40 36 33 32 32 32 31 33 33 33 34 35 36 37
1 4 6 6 7 6 6 5 3 3 4 2 1 4 3 1 1 2 1 1 3 6 9 11 12 11 9 5 4 6 6 7 9 10 13 14 12 11 10 9 8 7 7 7 8 9 11 14 17 20 24 28 31 31 33 36 36 36 35 36 38 40 40 39 39 40 42 42 43 45 44 42 41 37 35 34 34 33 32 33 32 31 31 33 35 36
4 4 6 3 4 7 8 5 2 4 6 2 1 4 5 3 1 3 3 2 5 7 5 4 9 9 12 9 5 7 7 8 10 11 13 13 11 10 9 8 7 6 7 7 7 8 8 8 11 15 21 25 27 29 33 36 36 35 35 36 37 39 40 39 39 40 41 42 44 45 44 43 41 37 36 36 35 34 33 33 31 30 31 32 33 35
4 5 6 4 3 7 10 8 4 4 9 9 6 7 8 5 3 5 5 2 6 8 3 2 5 5 9 8 8 11 12 12 12 11 12 11 11 11 9 9 8 7 7 7 7 7 7 8 10 15 20 23 25 29 33 35 36 35 35 36 37 39 40 39 39 40 40 42 44 44 43 42 40 37 37 37 36 35 33 32 32 32 32 33 34 36
9 7 8 11 7 10 14 15 14 10 10 13 10 7 7 5 5 6 6 6 7 6 2 2 4 4 5 4 5 10 12 11 9 10 10 9 10 10 8 9 10 9 9 8 7 8 8 10 13 16 19 22 25 29 31 33 34 34 34 36 37 40 39 38 39 40 41 43 44 42 41 41 40 39 38 38 38 36 34 33 32 33 33 34 36 36
11 7 8 15 10 14 18 14 10 7 5 7 5 5 8 5 5 2 2 5 5 3 3 4 4 4 5 6 7 6 8 10 10 10 10 11 10 7 7 9 9 10 10 8 8 9 9 11 14 16 18 22 25 27 29 31 32 33 34 35 37 41 40 38 39 41 42 43 42 41 42 42 40 40 39 39 40 38 37 35 34 35 35 35 36 36
7 4 7 13 7 14 21 15 12 10 6 4 5 8 7 2 5 2 2 1 3 2 5 3 5 6 5 9 11 9 11 12 11 11 11 13 11 7 8 10 9 9 10 9 8 8 9 9 12 16 19 21 24 26 28 32 33 35 36 36 37 39 38 36 38 41 42 42 41 41 42 43 41 41 41 42 42 40 38 36 36 37 36 36 36 35
4 2 4 12 12 15 16 11 12 9 4 5 8 9 3 4 2 2 2 1 3 3 4 3 10 8 2 6 7 10 14 14 14 16 12 11 9 7 9 10 10 10 9 8 8 8 8 8 11 16 19 22 24 26 29 32 33 34 36 36 37 38 37 37 38 40 41 41 41 41 42 43 42 42 43 44 43 40 37 37 38 38 37 37 36 34
2 2 3 11 15 11 6 6 7 5 1 3 5 5 6 2 3 3 3 2 3 5 4 4 10 8 7 8 4 8 16 16 18 20 13 9 8 8 9 10 10 9 8 8 7 7 7 8 12 16 18 20 22 24 26 27 27 30 33 34 35 37 38 37 37 38 40 40 40 40 41 41 41 42 43 43 41 37 36 39 39 38 38 37 35 35
2 3 4 7 10 8 7 6 9 7 3 1 1 3 3 2 3 4 5 2 3 6 5 4 6 5 9 11 8 10 13 14 18 18 13 12 12 11 10 9 9 8 8 8 7 7 7 8 12 15 17 17 18 20 23 23 23 26 29 31 33 36 36 35 35 36 37 38 38 38 38 38 39 40 41 40 38 36 37 39 39 37 38 36 35 36
2 3 4 2 4 6 5 8 13 14 10 6 6 8 6 3 1 1 4 3 3 5 4 5 7 8 6 6 9 13 12 12 14 14 13 14 13 13 12 10 9 9 8 8 7 7 8 8 11 14 15 15 15 16 18 20 22 25 27 29 32 34 33 33 34 34 35 36 36 37 37 38 38 38 38 37 36 36 38 39 38 38 37 35 35 36
4 3 6 3 3 6 7 12 18 19 16 13 11 12 12 10 6 4 6 5 3 4 4 4 9 11 5 5 9 13 12 13 14 14 14 13 11 10 9 9 9 9 8 8 7 7 7 7 10 12 12 12 13 14 15 17 20 22 24 27 30 31 32 33 33 33 34 34 34 36 38 37 36 35 35 35 35 36 37 38 37 37 36 35 36 35
5 2 7 6 4 6 7 6 6 9 14 15 10 8 11 10 8 9 10 6 5 7 5 2 7 11 6 7 9 12 13 14 15 16 14 12 9 7 8 9 8 8 9 8 6 6 6 6 8 8 8 9 11 12 13 15 17 19 21 23 25 28 30 31 31 31 31 32 33 35 36 35 34 33 33 34 35 36 37 37 36 35 35 36 36 36
3 1 6 6 4 4 5 4 6 4 7 12 8 5 8 11 12 10 6 5 7 9 8 4 8 12 8 7 9 9 10 12 13 14 12 10 9 7 9 9 8 8 9 7 6 6 5 5 6 6 7 8 9 10 11 13 15 16 17 18 20 23 26 26 27 28 29 30 32 32 33 33 33 33 32 33 34 35 35 35 35 35 35 36 35 35
6 5 6 7 5 4 4 4 4 3 3 7 10 11 12 15 15 6 1 2 5 9 12 8 9 14 7 4 7 8 7 9 10 9 7 8 9 8 7 8 8 7 7 7 7 6 5 6 5 6 7 9 10 11 12 13 14 15 16 17 18 19 20 21 23 25 27 28 29 30 31 31 31 32 32 33 34 34 34 34 33 34 34 34 34 35
7 7 8 10 9 9 9 7 7 6 4 5 9 13 15 17 19 12 6 8 8 11 14 10 12 15 7 1 5 8 7 8 10 8 6 7 9 9 7 8 7 7 7 8 7 6 5 5 5 6 8 10 12 13 14 15 15 16 17 17 18 18 19 19 20 22 24 26 27 28 29 30 30 31 32 32 33 33 33 32 31 32 32 32 32 32
4 6 10 12 13 13 9 5 4 4 6 7 11 18 20 21 23 18 11 11 12 11 12 12 15 18 14 7 7 8 8 9 10 9 7 8 10 10 9 8 7 6 7 6 5 5 5 6 7 7 9 11 13 14 15 16 17 18 19 20 20 20 20 20 21 21 22 23 24 26 27 28 29 29 29 30 30 30 30 29 29 29 29 28 28 28
4 9 15 16 19 18 10 4 2 4 9 13 17 21 23 22 22 19 15 16 15 11 12 15 15 18 23 17 9 7 9 8 9 10 9 10 11 8 7 6 6 5 5 5 5 6 7 8 8 8 8 11 14 14 16 17 18 18 19 20 20 20 21 21 22 22 21 22 23 24 25 25 25 26 26 25 25 25 24 24 24 24 23 23 23 23
3 9 17 18 21 23 15 7 4 3 6 11 15 19 21 22 22 22 22 23 19 13 15 18 18 20 26 19 10 9 10 9 10 11 10 10 8 4 5 6 6 6 6 7 8 8 8 9 9 8 8 10 12 14 15 17 18 18 19 18 17 18 19 19 20 22 22 23 24 24 23 22 22 21 21 20 20 19 19 19 18 18 17 17 18 18
4 7 12 13 16 20 19 12 6 4 4 6 9 13 16 18 20 21 22 23 21 18 17 19 19 20 21 18 12 9 8 8 9 7 5 6 5 5 7 8 8 8 9 9 10 10 10 10 9 7 6 8 12 14 16 17 18 19 19 18 17 17 17 17 19 20 22 23 23 22 21 20 19 19 18 18 18 17 17 17 17 17 16 16 16 16
8 10 11 9 10 14 16 14 10 9 9 9 10 11 12 16 18 19 19 19 18 17 19 22 20 16 18 19 13 6 5 6 7 6 6 7 7 7 8 8 9 10 10 10 10 10 9 9 8 6 6 10 15 17 18 19 19 19 19 18 18 18 17 18 18 19 20 20 19 18 18 18 18 17 17 17 16 16 17 17 17 17 17 16 16 16
8 9 8 8 9 12 13 14 14 12 10 13 14 12 12 14 14 15 17 19 18 19 22 22 17 16 19 15 7 5 7 9 9 8 8 8 8 8 10 11 11 10 10 10 10 9 9 9 8 8 9 13 17 19 21 21 19 18 19 19 19 19 19 19 20 19 19 18 17 16 16 16 16 16 16 15 15 15 16 16 16 17 18 18 17 17
7 8 7 7 8 12 13 13 13 12 10 12 13 14 16 16 15 15 17 20 20 18 16 16 17 19 12 2 5 9 12 14 14 10 9 9 10 10 11 11 10 10 11 11 11 11 11 9 9 11 14 17 21 24 25 24 22 21 21 21 20 20 21 21 21 21 20 19 18 17 16 15 16 16 15 15 15 15 14 14 14 14 15 16 16 16
6 8 8 7 8 12 13 9 7 9 11 9 8 15 21 20 18 18 18 21 23 19 14 14 17 17 7 5 14 16 12 15 16 14 12 9 8 9 10 10 10 11 11 10 10 10 10 9 11 15 20 24 27 28 27 25 24 23 22 21 21 21 22 23 23 23 22 20 19 18 17 16 17 16 15 15 14 13 12 13 13 12 12 13 13 13
8 8 5 5 6 8 6 8 7 9 7 2 2 12 19 19 17 17 17 21 22 19 18 19 21 22 20 20 19 10 7 12 12 11 12 11 10 11 10 11 11 11 11 11 12 11 10 10 12 15 21 26 29 29 26 26 27 25 23 22 22 23 24 24 24 23 23 21 20 19 19 18 18 17 15 14 12 10 9 10 13 14 13 12 12 12
7 7 4 2 4 3 4 7 8 3 2 3 3 8 12 11 12 12 13 18 21 21 22 23 27 31 27 22 15 5 5 8 6 7 12 13 13 13 12 12 12 13 15 14 12 12 13 16 17 20 25 31 32 30 28 29 30 27 24 23 23 24 24 24 24 23 23 22 21 21 21 20 18 16 14 13 11 10 9 9 11 14 14 13 12 12
3 4 3 3 4 4 4 6 4 3 1 4 5 6 10 11 13 14 12 16 22 24 22 20 26 30 26 24 21 10 3 1 4 10 14 14 13 14 14 15 16 16 17 16 14 16 20 23 25 27 31 32 32 32 33 33 30 27 25 23 22 23 23 22 23 23 23 23 22 22 22 20 18 16 14 13 12 12 12 11 10 12 14 14 13 12
2 1 1 3 3 3 4 4 4 6 8 7 5 7 10 12 12 13 10 12 16 18 17 19 25 28 27 28 20 4 5 1 10 15 15 13 12 12 13 14 13 12 15 19 18 17 21 26 28 30 30 28 29 32 34 32 28 26 25 23 23 23 22 23 24 24 24 24 24 23 22 20 19 18 17 17 15 15 14 13 13 12 12 13 13 13
3 1 1 2 2 1 2 3 5 6 5 5 5 6 7 8 7 9 5 12 14 13 15 20 25 28 28 22 9 5 3 8 16 15 8 9 10 11 11 14 15 14 18 24 22 20 23 27 27 25 23 22 25 30 31 29 28 26 24 24 24 23 23 25 28 27 26 26 25 23 22 21 20 20 20 20 19 18 17 16 15 14 12 12 13 13
4 2 1 3 3 3 3 2 3 3 3 4 5 4 4 7 10 9 6 11 9 8 13 17 22 27 25 12 4 6 9 14 18 12 5 10 13 14 14 18 18 16 18 24 26 26 25 23 21 20 20 24 30 33 31 29 27 26 26 25 24 23 27 31 31 28 27 25 23 23 23 22 21 22 22 22 21 21 20 18 17 16 14 14 14 14
3 3 3 4 5 5 5 3 2 2 4 5 6 5 6 8 7 8 10 6 2 8 12 14 18 22 17 7 6 9 13 17 18 10 5 9 12 12 14 18 18 19 22 26 28 27 23 20 21 23 26 30 33 31 30 29 27 26 27 24 23 28 33 32 29 26 25 23 23 22 22 22 22 22 23 23 22 22 22 20 19 18 17 16 16 15
4 3 3 4 4 3 3 3 3 4 5 5 5 5 7 7 4 7 6 3 0 5 9 12 15 16 11 9 11 14 16 18 17 10 7 9 9 11 14 14 14 18 24 25 22 20 20 20 21 24 27 29 29 28 30 31 28 27 26 24 28 34 33 28 26 25 24 23 23 23 23 23 23 23 23 24 24 24 24 22 21 20 19 18 18 17
5 4 3 4 4 2 2 4 3 3 3 3 6 3 3 5 5 3 4 5 3 1 1 5 8 9 8 10 14 16 16 17 15 13 12 11 11 13 15 11 10 14 18 18 17 18 20 19 19 23 28 27 26 27 29 30 28 26 25 27 32 33 28 25 25 24 24 24 23 24 24 24 24 24 25 26 25 25 24 23 22 22 21 20 19 18
4 4 3 3 3 3 3 4 4 3 3 3 6 4 4 5 2 1 3 5 6 4 2 3 5 6 6 9 12 14 13 14 14 14 14 13 14 16 15 12 11 12 14 16 17 19 21 19 19 22 25 24 25 26 28 30 29 25 26 30 32 28 25 25 25 24 24 25 25 25 26 25 25 25 26 26 25 24 23 23 22 21 20 19 19 18
4 4 4 3 3 3 4 5 5 4 3 4 4 4 5 6 5 3 2 4 5 4 3 3 6 8 7 7 9 11 10 11 13 14 14 14 15 15 14 13 12 12 15 16 16 19 22 21 20 21 21 23 26 27 29 32 31 28 29 32 30 27 27 26 25 25 26 26 26 27 27 27 26 26 26 25 24 23 22 22 21 19 18 17 17 16
3 2 2 1 2 4 3 5 7 5 3 3 5 6 6 7 8 7 6 7 7 7 6 5 6 9 8 6 6 8 10 10 12 13 12 12 12 12 13 12 11 12 14 14 14 17 21 20 18 18 18 20 25 27 30 33 32 30 31 31 29 28 28 28 27 27 27 26 27 27 28 28 27 25 25 24 23 21 21 21 21 19 17 16 15 14
3 1 1 1 1 2 4 6 9 10 8 6 6 7 8 8 8 7 7 9 10 10 10 8 7 8 9 6 6 9 11 11 10 11 10 10 11 13 14 12 11 11 13 16 18 20 20 17 14 14 16 20 25 29 30 31 30 28 26 26 28 28 28 28 28 27 26 26 27 27 28 28 27 25 24 23 22 20 20 20 21 19 18 17 16 14
3 1 2 4 5 4 5 9 9 8 8 5 5 6 7 8 9 8 9 10 10 10 10 9 7 7 8 9 8 8 10 11 10 9 9 10 11 12 13 12 12 12 15 19 21 21 20 17 16 17 18 21 25 27 27 26 26 24 22 24 27 28 27 27 27 26 26 26 27 27 28 28 27 25 24 22 21 20 20 20 20 20 19 18 17 16
2 2 2 2 2 3 8 10 7 5 8 8 7 8 8 8 9 10 10 10 10 10 10 10 8 7 8 11 10 7 8 11 10 8 10 11 11 12 13 13 11 11 13 17 18 20 20 18 18 19 19 18 20 22 22 22 22 22 22 24 27 28 28 27 26 24 24 25 26 26 26 26 25 25 24 22 20 19 18 19 19 19 18 17 16 14
2 4 3 1 2 4 9 9 3 1 6 8 8 9 10 9 9 10 11 11 11 11 10 10 9 9 9 10 9 6 8 11 11 10 10 10 12 13 14 12 10 8 9 11 13 15 16 15 14 15 14 14 16 18 19 19 20 20 22 24 27 29 29 27 25 24 24 25 25 25 25 25 24 24 24 23 22 19 16 15 16 16 15 15 14 12
5 5 5 4 5 8 12 11 5 3 7 9 6 7 8 8 8 10 11 11 12 12 10 9 9 11 11 10 7 6 7 10 11 10 10 11 13 12 11 11 9 7 8 10 10 11 12 12 12 13 14 15 16 18 18 18 19 20 22 24 27 28 28 27 26 24 23 24 25 25 26 26 25 25 25 25 24 22 20 18 15 13 12 13 13 12
Wind_Direction
164 190 200 201 200 199 197 200 220 260 142 155 172 195 190 196 232 223 231 258 191 177 229 221 229 250 259 260 246 244 253 266 264 260 259 256 258 250 237 237 234 236 240 242 244 239 234 233 229 225 224 223 223 223 223 222 222 222 222 222 222 221 220 219 219 218 219 219 220 222 224 227 230 231 232 233 235 236 237 238 238 237 236 235 235 234
174 209 217 210 199 188 186 190 201 201 164 163 174 196 205 206 230 229 224 257 204 197 252 227 228 252 259 263 257 239 228 251 251 251 256 248 249 250 241 238 234 240 249 251 251 240 230 232 228 224 222 220 220 221 221 221 222 222 222 222 223 221 220 219 219 219 219 220 221 222 225 227 230 232 232 233 235 236 238 239 240 239 237 236 236 234
209 224 224 202 151 145 164 179 183 191 183 180 173 185 211 208 248 271 246 252 200 203 254 245 236 255 262 266 263 243 230 249 249 239 245 243 244 249 244 241 236 242 249 247 251 239 227 228 225 220 218 219 221 222 221 222 223 222 222 223 223 221 221 221 221 220 221 222 224 226 228 230 230 232 234 236 237 238 239 240 241 240 237 236 236 234
230 235 217 165 129 151 158 183 196 230 220 195 173 179 209 170 154 249 255 219 204 197 218 264 268 263 270 278 271 246 232 251 256 243 245 241 237 245 246 247 240 237 243 243 245 239 227 226 221 216 215 218 220 221 220 220 221 222 223 224 222 222 222 222 222 222 223 224 226 228 230 233 233 235 237 237 238 239 240 241 240 239 237 236 236 234
237 256 163 155 160 157 165 196 198 212 226 215 203 194 198 171 187 220 226 169 280 278 151 357 307 274 248 262 267 255 231 251 259 253 256 249 239 246 251 252 245 239 242 241 242 238 225 223 220 217 217 217 217 218 219 220 220 222 223 224 223 222 223 223 223 223 223 223 224 224 225 228 231 233 233 232 234 236 238 240 239 239 237 236 236 235
234 240 151 173 169 148 180 206 200 201 211 232 223 201 192 182 198 206 156 105 9 302 267 110 288 279 245 250 262 268 272 264 260 251 256 255 246 243 247 249 246 245 244 240 240 237 222 222 223 220 219 217 216 218 219 221 222 223 224 223 223 222 223 224 224 223 222 220 220 219 217 219 221 223 225 227 230 232 234 237 239 239 238 237 237 236
224 204 174 179 170 171 194 211 204 193 202 236 211 178 187 194 202 196 161 150 224 258 297 115 212 273 294 265 258 265 274 269 265 252 254 258 254 241 240 245 243 244 246 243 242 237 224 221 220 221 220 218 219 220 220 222 223 223 223 223 223 223 222 222 223 222 221 219 219 219 219 220 220 222 226 229 231 233 236 238 239 239 239 238 237 237
178 178 180 173 176 187 198 212 203 186 199 234 164 156 188 201 199 192 167 185 226 260 325 93 173 276 282 255 244 247 258 270 272 264 257 256 254 246 242 243 240 240 242 242 241 235 228 222 217 219 221 220 223 223 221 221 222 221 222 223 223 222 222 221 221 221 221 220 219 220 222 223 224 226 230 233 234 236 238 240 240 241 241 240 239 238
158 175 181 173 178 189 205 216 195 176 205 238 154 159 180 170 157 161 167 188 352 0 271 219 137 269 268 255 252 249 241 250 257 257 257 256 252 248 244 243 239 239 240 239 240 237 231 226 222 223 224 224 224 223 221 222 222 221 221 222 222 222 221 220 220 220 220 221 221 221 223 225 228 230 232 235 237 238 238 240 241 242 242 242 241 240
159 193 184 170 177 197 212 218 182 178 209 225 154 141 117 96 89 98 144 139 83 281 249 226 163 231 266 238 199 244 236 234 246 253 256 253 251 250 249 247 242 241 243 239 239 239 234 229 227 227 226 226 225 223 223 223 223 221 221 220 219 221 221 220 219 218 220 220 220 222 223 225 228 230 232 234 236 237 238 239 240 241 242 242 242 242
86 190 168 172 194 201 201 188 167 186 198 111 132 114 77 53 54 67 59 68 127 238 245 221 178 195 266 233 180 210 211 207 226 247 254 252 251 254 252 251 249 246 246 242 241 244 242 238 233 229 225 225 226 224 223 223 223 221 220 217 218 220 220 219 218 218 219 220 220 223 224 226 228 228 228 230 233 234 235 237 239 239 240 241 242 243
344 125 157 199 199 167 126 109 129 139 111 72 158 137 122 12 37 76 40 62 213 241 245 219 177 179 238 242 183 228 232 211 219 234 247 251 251 251 251 256 260 256 256 252 247 247 246 244 236 227 223 224 225 222 221 223 223 221 219 217 217 219 219 218 218 217 219 219 220 224 225 227 229 228 227 228 231 232 233 236 238 238 240 241 242 242
225 181 185 198 175 155 137 129 55 81 137 178 298 164 169 195 200 189 200 196 227 245 260 210 165 185 237 245 229 244 251 240 231 232 242 249 253 256 257 260 260 253 255 254 251 249 243 241 233 222 221 223 221 219 220 222 222 220 219 217 217 219 219 217 217 218 219 219 221 224 225 227 229 228 228 230 233 233 234 236 237 237 238 239 240 240
208 228 199 167 164 175 164 159 174 168 173 185 188 184 183 181 196 207 204 215 235 241 273 113 159 216 260 258 236 235 242 242 238 239 243 244 251 257 258 262 264 255 244 242 248 250 244 239 233 224 222 222 220 220 220 220 220 218 217 216 217 220 220 217 217 218 219 221 224 225 226 228 229 229 230 232 234 235 235 236 237 237 238 239 240 240
196 223 188 179 179 173 183 193 191 174 176 192 189 189 198 188 195 205 199 213 231 247 289 165 181 209 237 254 243 234 248 262 263 262 260 253 250 253 262 267 268 265 253 244 242 243 243 240 237 231 225 223 223 222 221 220 219 217 217 216 217 221 221 217 217 219 219 222 225 226 227 228 229 230 231 233 235 235 235 236 236 237 238 239 241 242
206 235 182 186 180 167 190 207 184 145 167 199 168 189 222 200 169 187 209 205 212 270 271 216 224 231 232 273 281 261 272 276 267 269 269 264 254 245 260 261 255 260 258 248 240 239 243 243 239 235 228 225 225 223 222 220 218 217 217 217 218 222 222 218 218 219 221 223 225 225 227 228 229 230 231 233 235 235 235 235 236 238 239 240 242 243
205 244 182 184 176 179 195 196 172 166 175 174 170 201 218 134 127 164 265 222 98 238 238 207 253 279 301 284 262 249 273 278 269 264 253 254 255 237 249 256 249 252 252 245 238 237 242 244 241 236 231 228 226 223 222 221 219 218 218 218 219 223 223 219 219 221 222 224 224 225 227 228 229 229 231 233 235 235 234 235 237 239 240 241 242 243
173 250 190 179 190 203 201 185 181 190 150 143 195 199 154 65 87 131 242 1 80 239 253 215 237 246 267 269 236 216 243 259 265 261 244 243 251 235 242 249 244 246 250 253 248 242 244 244 243 240 235 232 229 226 226 224 222 220 219 219 220 222 223 221 221 222 223 224 224 226 228 228 229 230 232 234 235 235 234 235 238 239 241 243 243 243
150 260 242 189 197 200 163 153 205 237 115 151 202 171 125 170 224 154 188 206 170 226 263 231 231 228 218 235 211 199 221 228 243 251 246 242 240 230 239 246 248 252 254 257 252 247 246 237 237 239 238 237 234 231 231 228 225 223 222 222 222 225 226 225 223 223 224 224 225 227 229 229 230 231 233 235 235 234 233 236 238 238 241 243 243 245
163 206 238 207 193 171 137 171 205 214 213 230 170 145 134 197 202 177 205 222 180 220 259 248 233 232 225 222 203 208 217 218 234 248 253 253 245 236 237 241 248 250 242 241 240 243 246 240 237 238 239 242 239 236 234 230 227 226 225 224 225 228 229 228 226 225 226 226 226 228 230 231 231 232 233 234 234 233 234 237 238 239 241 243 244 245
193 208 235 226 163 159 164 194 198 195 190 188 190 186 183 191 172 182 218 206 181 216 242 256 255 253 239 208 197 208 214 217 228 240 247 248 243 238 236 236 243 248 239 233 230 238 248 252 250 244 242 243 241 236 234 230 228 228 227 227 227 228 229 229 228 227 227 227 227 229 230 232 233 233 234 234 234 234 236 238 238 239 241 242 244 245
190 204 217 213 168 186 199 199 202 200 187 186 199 195 190 190 179 193 208 193 193 220 203 219 258 260 241 181 191 202 209 218 220 223 235 242 239 236 237 234 236 242 239 230 227 237 247 254 256 248 238 232 228 226 225 224 225 226 227 229 229 230 230 230 230 229 229 229 229 230 232 233 234 234 235 235 235 235 237 238 239 240 241 242 245 246
175 181 214 225 218 209 213 209 224 219 197 199 212 204 197 192 180 198 210 193 189 213 200 189 265 268 239 187 194 197 203 215 220 223 234 248 248 241 243 249 247 244 246 242 235 240 240 246 254 245 226 216 215 217 217 218 220 222 227 229 228 230 231 231 231 231 231 231 231 232 233 234 235 235 236 236 236 237 238 239 241 241 242 243 246 247
163 142 208 232 259 253 267 318 345 324 209 210 225 216 201 197 196 202 206 188 191 207 209 213 254 262 245 196 204 211 209 219 229 231 235 249 257 247 242 251 253 247 253 253 244 247 246 248 252 242 227 216 209 211 213 216 220 221 224 226 226 229 231 232 232 231 231 231 233 234 234 235 236 235 236 237 238 239 241 242 243 243 244 245 247 248
191 178 192 221 230 228 249 278 299 300 232 214 214 208 203 200 201 201 79 203 210 206 207 212 241 253 251 177 205 228 231 239 249 248 241 244 254 256 251 255 253 250 257 251 239 241 240 238 240 237 233 227 220 219 219 219 221 223 224 226 227 230 231 231 230 230 230 231 232 233 233 234 235 234 236 237 239 241 242 243 244 244 245 245 246 247
197 191 196 213 213 209 212 216 222 221 216 222 210 205 205 199 196 198 201 212 215 206 204 208 230 244 261 68 220 233 228 236 249 257 257 251 252 254 252 254 248 234 231 227 222 226 234 241 247 241 235 232 231 231 230 230 230 229 230 230 231 232 231 230 229 228 228 229 230 231 231 231 232 232 235 237 238 240 241 242 243 243 244 244 245 247
178 205 210 217 224 226 218 213 218 180 171 198 204 203 208 205 199 200 205 210 215 215 213 217 229 243 254 242 227 233 220 221 238 243 244 249 250 246 241 243 243 231 227 225 226 240 251 254 251 242 234 232 233 234 235 236 236 234 233 232 231 231 231 229 228 227 226 226 228 229 230 230 231 232 234 236 238 240 240 241 242 242 243 244 245 246
161 215 214 217 230 235 226 195 178 162 178 198 206 206 209 209 203 203 210 213 211 216 228 226 222 241 250 238 214 221 224 220 232 231 227 235 242 248 253 256 261 264 266 261 248 242 240 243 246 245 239 233 231 233 235 236 238 237 237 236 234 232 232 229 227 226 226 225 227 228 229 230 231 232 234 235 237 238 238 239 241 243 244 245 246 246
162 220 215 214 227 232 228 202 147 146 190 202 212 215 214 212 207 206 213 215 210 212 230 228 215 227 246 243 213 208 216 211 220 225 224 232 238 243 250 249 243 243 249 247 243 236 231 236 240 238 238 238 233 231 232 235 236 235 235 235 232 231 231 229 227 226 226 226 228 230 231 231 231 231 231 232 232 232 232 233 235 237 238 240 241 242
173 222 217 216 230 233 229 217 178 170 203 206 216 224 225 224 219 216 219 220 220 222 233 239 234 235 247 248 228 209 204 209 229 244 245 242 232 209 217 229 228 225 225 226 228 228 224 227 231 229 238 244 235 228 227 229 228 228 229 228 225 224 223 221 221 222 223 225 229 231 231 231 230 227 226 225 224 224 226 225 225 225 226 227 229 232
203 219 210 206 234 242 234 228 215 202 211 222 221 218 225 230 228 227 228 227 227 230 235 242 246 246 248 248 236 200 171 200 233 245 240 236 224 210 213 223 224 223 224 226 228 229 228 228 228 226 233 235 227 221 220 221 220 222 223 221 219 218 216 214 215 218 221 224 227 228 227 225 223 221 221 221 222 224 226 227 226 226 226 227 228 228
208 217 205 197 225 239 229 224 225 218 220 234 231 217 220 227 226 226 230 228 224 222 229 237 243 246 249 248 233 183 182 208 222 219 224 232 224 213 215 221 223 222 225 231 234 233 232 226 219 217 223 227 223 217 216 216 216 217 217 215 215 214 212 211 214 216 219 221 222 222 219 217 215 215 217 220 224 228 232 234 235 234 234 235 237 237
192 199 201 196 216 238 228 213 217 220 226 237 225 208 213 219 217 221 230 235 232 226 227 229 232 242 251 231 203 211 202 211 223 218 216 226 222 218 222 223 226 228 227 227 229 229 226 221 215 214 217 218 215 211 211 212 211 212 212 211 212 212 212 212 213 216 218 219 219 217 213 210 210 212 217 223 229 233 234 235 236 236 236 235 237 238
179 193 201 193 209 236 225 188 188 219 227 232 209 200 209 213 212 216 224 229 230 230 233 240 246 256 269 228 231 231 207 207 221 221 218 221 218 222 229 227 229 234 234 231 229 227 222 219 221 219 218 218 213 208 210 213 212 212 212 212 213 213 213 214 214 215 218 218 217 215 211 209 211 214 220 226 235 240 238 232 230 229 229 230 230 232
177 185 195 200 212 223 191 156 190 222 216 211 186 194 201 208 214 221 230 236 236 235 239 247 254 254 247 241 245 245 213 221 233 233 230 227 218 218 223 225 229 236 240 236 228 223 218 217 220 220 220 221 217 210 211 214 214 215 216 215 213 212 213 214 214 215 216 216 216 214 212 213 214 218 224 229 236 240 233 226 224 223 222 221 221 223
184 182 171 186 202 188 150 176 210 234 100 119 194 183 181 198 213 219 237 245 240 234 231 232 241 246 247 252 261 251 205 229 257 253 237 229 225 225 223 223 224 228 236 234 219 211 213 213 215 217 219 220 217 211 211 213 214 215 216 214 213 213 212 211 212 213 213 213 214 213 213 215 217 220 223 223 220 215 211 212 216 217 217 216 215 216
190 189 176 199 205 198 201 201 216 303 302 193 203 182 171 186 193 196 223 241 234 229 228 228 239 247 249 251 252 241 174 179 271 255 238 225 221 223 222 224 226 227 236 241 230 220 220 220 221 223 221 220 217 211 210 213 214 212 211 210 210 211 209 209 211 213 212 211 211 211 211 214 215 214 212 208 203 202 203 203 205 207 209 212 214 218
199 247 221 221 218 191 201 206 211 239 237 215 213 209 196 195 188 179 206 245 238 224 220 225 237 242 242 244 245 231 74 310 260 253 238 216 215 226 231 239 242 233 236 244 241 230 225 223 225 228 226 223 220 215 212 212 211 207 205 206 207 207 206 208 213 214 212 211 211 210 209 211 211 207 202 199 197 197 199 200 201 202 200 201 205 209
196 326 350 245 244 182 187 210 210 223 237 215 212 228 214 193 145 123 174 251 248 217 207 222 234 240 244 246 232 123 133 245 254 256 229 178 199 222 230 240 243 235 236 241 240 234 229 226 226 229 227 224 225 222 216 212 208 203 202 205 206 204 204 210 215 215 213 212 211 209 209 210 208 203 199 196 193 193 195 195 198 203 203 202 204 207
185 184 198 216 232 217 205 232 225 234 261 214 201 233 208 154 123 123 198 251 246 194 196 216 230 240 246 241 161 161 209 236 250 253 169 160 197 211 216 228 232 230 237 242 240 237 236 229 221 220 218 221 226 224 217 211 206 202 204 206 203 203 209 215 217 215 212 211 208 207 207 207 205 202 199 196 191 189 190 192 195 200 201 200 202 206
186 183 197 213 226 216 209 237 269 263 248 224 210 206 164 129 128 182 211 239 184 165 191 208 225 241 242 197 165 213 227 237 249 251 176 185 209 212 219 229 231 228 233 239 238 236 234 227 220 220 222 226 227 223 214 207 202 203 206 204 201 209 216 218 215 211 208 205 204 204 204 204 204 202 199 196 191 189 190 192 194 196 197 198 199 201
174 169 193 206 216 214 202 225 264 267 243 204 183 180 153 139 185 223 227 276 53 168 194 209 222 237 228 187 203 231 238 242 250 247 225 221 221 224 232 233 231 234 238 242 241 232 225 223 222 223 228 229 226 220 212 204 200 203 202 200 208 217 218 214 210 206 202 200 200 201 201 201 202 201 198 195 194 193 193 192 194 196 198 199 200 199
169 162 194 201 191 175 180 203 221 262 265 150 126 132 188 182 202 255 301 315 331 41 236 234 235 240 228 210 221 233 241 249 252 248 245 241 235 241 245 236 231 239 241 242 239 225 216 217 218 221 225 224 219 215 209 201 198 199 198 204 214 217 213 208 206 201 197 197 198 198 198 199 198 197 197 197 197 197 195 193 193 195 197 197 195 193
182 171 188 204 188 157 174 211 208 209 249 198 144 156 228 223 196 35 332 312 324 342 334 306 295 279 257 248 250 249 248 252 252 250 250 249 245 248 252 246 239 244 246 243 235 221 212 212 216 219 220 217 214 212 207 201 198 196 199 210 214 210 205 203 199 194 193 195 195 196 196 196 195 196 198 198 199 198 196 192 191 191 193 192 189 185
223 197 175 186 213 189 181 214 222 203 212 224 198 194 243 273 294 312 282 277 282 273 252 277 293 287 274 267 273 277 271 262 259 257 254 254 254 253 254 254 245 241 246 247 235 217 210 210 212 211 211 212 211 208 206 204 200 197 203 210 209 202 199 196 190 188 191 192 192 194 193 192 194 197 198 198 198 197 193 188 186 186 186 185 182 179
256 220 148 137 268 269 254 244 248 254 237 210 220 231 246 271 287 294 296 288 276 270 268 261 264 273 272 255 255 273 275 268 270 272 269 271 275 269 262 261 252 243 246 247 235 217 210 210 210 204 204 209 207 205 205 204 202 202 206 206 201 197 195 189 185 186 187 188 190 191 189 189 191 194 196 196 196 197 194 188 184 181 181 179 177 174
296 233 154 174 219 245 260 248 241 244 239 214 219 243 257 269 278 285 287 280 274 276 273 258 248 265 276 264 242 255 266 265 265 273 277 278 276 270 264 258 246 237 234 233 228 214 202 199 202 198 200 206 205 203 204 203 203 206 207 200 195 192 188 185 183 183 183 185 186 186 187 186 186 187 188 188 189 192 192 189 186 182 179 178 173 167
286 226 181 206 203 203 248 253 244 252 267 260 240 244 257 268 269 263 258 259 262 266 267 261 251 258 277 278 257 246 263 270 263 261 270 271 267 265 266 258 243 232 229 227 222 210 197 196 200 200 202 205 203 201 200 198 200 203 202 196 192 187 182 182 182 181 182 182 182 183 185 185 183 181 179 179 181 184 185 184 183 181 181 182 181 175
239 256 194 196 227 270 275 270 266 288 296 278 249 236 236 240 248 253 258 262 264 264 266 267 259 245 255 271 271 257 261 270 265 253 258 267 268 265 265 262 253 238 230 226 218 206 202 205 207 205 204 203 197 194 193 194 196 198 196 193 188 182 179 178 178 179 179 179 179 180 180 180 180 176 171 169 172 175 178 181 182 181 181 184 186 185
218 244 214 175 286 267 261 256 234 260 281 268 249 242 239 234 238 251 262 269 270 269 269 274 276 269 256 256 257 248 252 266 269 262 259 264 269 271 273 274 269 250 231 224 215 210 212 216 213 206 200 192 187 186 187 190 192 192 191 187 183 180 177 174 173 174 175 175 176 177 175 174 174 171 168 166 164 162 162 168 176 179 180 178 177 178
214 221 193 192 235 246 252 250 206 188 261 268 259 252 247 237 238 248 256 262 266 267 265 265 277 288 288 279 260 228 236 261 271 272 274 273 270 273 277 272 260 238 214 202 197 201 205 202 195 187 180 178 180 181 183 185 185 184 183 181 179 178 176 173 171 170 172 175 175 174 173 171 168 167 166 165 164 161 151 143 142 150 159 162 163 167
Height
828 832 832 828 826 825 827 828 827 827 827 832 838 840 840 840 839 836 831 829 829 833 835 834 834 829 818 816 816 815 817 817 814 812 811 811 809 808 808 807 805 803 800 798 797 798 800 800 802 804 806 808 809 811 812 813 814 815 817 818 819 821 824 825 826 828 829 830 831 833 834 834 835 837 838 839 839 840 840 841 842 842 844 845 847 848
829 830 826 821 820 821 825 828 828 829 828 830 836 839 840 840 837 832 830 830 830 833 833 830 833 830 820 816 814 814 817 814 809 809 809 807 806 804 803 802 801 799 797 796 795 796 797 797 798 801 802 805 806 807 808 809 811 812 814 815 816 819 821 821 823 824 825 825 827 829 830 831 833 834 835 836 837 838 839 839 840 841 842 844 845 846
830 827 820 818 819 822 826 828 830 831 830 832 835 839 841 839 837 834 830 830 832 834 832 829 833 830 819 814 812 813 814 807 803 804 804 803 803 801 797 797 797 797 796 794 792 793 794 794 795 797 798 800 801 802 804 805 807 809 811 811 813 815 816 818 819 820 821 822 824 826 827 829 830 831 832 834 835 836 836 837 838 839 840 842 843 844
831 822 815 817 819 823 829 831 832 834 833 834 836 840 840 838 839 837 831 831 833 834 832 831 833 829 820 814 810 808 807 802 799 800 800 799 798 795 792 792 793 793 791 790 789 789 790 791 792 793 794 796 797 799 800 802 803 805 806 807 809 811 813 814 816 817 819 821 823 824 826 827 828 829 830 831 832 833 833 834 835 836 837 839 840 841
827 817 811 815 819 823 832 835 835 836 836 834 834 837 837 836 836 833 831 831 832 833 832 833 834 826 817 814 806 800 803 802 798 798 798 795 793 791 791 789 788 787 786 786 785 785 787 787 788 789 789 791 792 794 795 797 799 799 801 803 806 808 809 811 813 815 818 820 821 823 825 826 826 826 827 827 827 828 829 830 831 832 834 836 837 838
823 817 812 815 821 826 832 835 834 834 837 836 831 830 832 833 832 831 832 832 834 836 832 834 840 826 812 813 807 799 803 802 798 799 795 790 788 790 789 786 783 782 781 781 780 781 783 783 784 785 786 787 788 788 790 792 794 795 797 799 802 804 806 807 810 812 815 816 818 819 821 821 822 822 821 821 821 823 824 825 827 829 831 833 834 835
817 816 814 817 824 827 831 833 830 831 838 837 827 824 829 829 830 832 832 833 838 840 834 835 841 831 815 810 805 801 803 799 796 797 792 786 786 786 784 780 779 778 776 777 777 777 779 779 780 781 782 783 783 783 786 788 789 791 793 795 797 799 801 803 806 809 811 812 814 815 815 816 817 817 816 816 819 820 822 823 825 827 828 829 830 831
808 814 816 818 823 827 830 828 823 824 834 833 819 819 827 828 830 833 833 833 836 837 837 836 840 840 826 810 801 799 800 797 793 791 787 784 783 781 779 776 775 774 772 772 772 773 774 774 775 776 776 777 777 779 782 784 785 787 789 791 792 794 796 799 802 804 806 808 809 811 812 813 812 812 813 815 818 818 820 821 822 823 824 826 827 828
801 810 812 813 821 825 822 815 814 821 828 825 817 819 824 827 832 835 834 835 837 840 840 836 840 844 827 807 803 802 800 797 790 783 779 776 775 773 772 771 770 769 768 768 768 768 769 769 770 770 771 772 773 776 778 778 780 782 784 787 789 790 792 794 797 799 801 803 805 807 808 809 809 810 812 814 815 816 817 818 819 820 821 822 823 824
800 801 801 807 815 816 810 807 811 818 822 820 819 821 824 828 834 839 838 836 840 844 840 834 839 841 819 798 800 805 803 798 789 782 776 770 768 766 765 765 765 765 765 765 765 764 764 764 765 765 767 769 769 771 772 773 776 778 780 783 785 786 788 790 792 795 797 799 802 803 804 804 806 808 810 812 813 813 814 815 815 817 818 819 820 821
797 796 798 804 807 804 804 809 813 815 820 822 823 826 830 834 835 839 842 840 842 842 832 825 830 837 821 795 791 794 791 787 784 780 772 766 765 764 762 761 761 762 763 763 763 761 760 760 761 762 763 764 765 766 769 770 772 774 776 779 780 782 784 786 788 791 792 795 797 798 799 800 802 804 807 808 809 810 811 811 812 813 815 816 817 818
799 801 801 798 797 798 804 812 816 817 822 827 828 827 834 841 839 842 846 846 846 836 820 814 821 834 825 796 784 784 780 779 778 773 767 762 762 761 760 760 759 760 760 760 760 759 758 758 758 760 760 760 762 764 766 767 768 771 772 775 776 778 780 782 785 787 788 791 792 793 795 796 798 801 803 804 804 806 807 807 809 811 812 813 813 814
804 802 798 795 795 796 803 815 822 823 825 830 833 831 837 845 844 844 844 843 841 827 815 815 821 826 811 784 778 780 776 776 773 768 764 761 760 759 759 759 758 759 759 758 758 757 756 756 755 756 756 756 758 759 761 762 764 766 768 771 772 773 776 778 781 783 785 787 787 788 791 792 795 798 799 800 801 802 804 805 807 808 809 809 810 810
807 803 799 800 798 794 799 811 820 821 821 826 828 827 832 838 841 841 840 840 836 822 817 821 822 818 800 777 773 772 767 766 764 764 763 761 760 758 758 758 757 757 757 757 756 755 753 753 752 752 752 753 754 755 756 758 759 762 764 766 768 769 772 775 777 779 780 782 783 785 787 789 792 794 795 796 797 799 801 802 803 804 805 806 806 806
801 800 796 795 792 789 791 793 794 800 809 814 813 817 821 822 826 829 829 831 828 822 822 825 821 812 795 779 772 768 764 762 761 760 760 761 760 759 758 758 756 754 753 753 753 752 751 749 749 749 749 749 750 751 752 754 756 758 760 761 763 765 767 770 773 774 776 777 779 782 784 786 788 790 791 792 793 795 797 798 799 800 801 801 801 802
793 789 783 780 779 782 786 784 785 796 810 812 810 817 817 808 809 818 822 820 818 823 824 820 812 796 780 772 769 768 766 762 761 760 759 758 756 758 759 755 753 752 749 748 748 748 747 746 746 746 746 746 746 748 749 750 752 754 756 758 759 760 762 766 768 770 771 772 775 777 779 781 783 785 787 788 788 790 792 794 795 795 796 797 797 798
793 786 779 780 781 780 779 779 784 791 801 810 813 813 808 801 802 813 823 820 820 826 818 808 804 793 781 770 759 761 762 757 756 755 754 752 751 756 755 750 750 748 745 745 744 743 743 743 743 743 742 743 743 744 745 746 748 749 751 754 755 757 759 762 764 765 767 769 771 773 774 776 778 780 781 782 783 785 788 790 791 791 792 793 794 796
784 784 779 782 784 779 773 778 784 783 787 802 808 801 801 808 807 810 821 825 828 829 814 801 799 795 793 778 758 759 762 755 749 744 743 746 748 750 747 743 744 742 742 742 740 740 740 740 740 739 739 739 739 741 741 742 744 746 748 750 751 753 755 757 759 761 763 765 766 768 769 771 773 775 776 777 779 782 785 786 786 787 788 789 791 793
778 784 782 779 779 777 778 787 794 792 789 794 794 790 799 813 813 812 818 820 823 823 808 796 794 790 786 772 758 760 761 756 748 738 738 741 742 743 740 737 739 739 739 738 736 737 737 736 737 735 736 736 737 738 739 740 743 744 745 747 749 750 751 754 756 757 759 761 763 764 766 768 770 771 772 773 776 779 780 781 782 783 784 786 788 790
778 783 782 777 776 778 783 791 795 796 795 793 791 794 800 804 805 806 806 803 808 812 802 793 790 780 766 754 751 754 755 755 751 742 740 740 737 737 736 734 734 734 733 732 732 733 732 732 733 732 733 734 734 736 737 739 741 741 743 745 746 747 749 751 753 754 757 758 760 762 763 765 766 767 769 770 773 775 776 776 778 779 781 783 785 786
779 783 781 780 781 781 784 784 780 781 789 793 793 795 798 800 802 802 800 795 798 805 802 797 787 764 747 745 746 746 746 746 747 744 740 736 733 733 732 731 730 729 730 730 729 729 729 730 730 730 731 731 732 734 734 736 738 739 741 742 742 744 746 748 749 751 753 755 757 759 760 761 762 764 766 768 770 771 771 773 774 776 778 779 781 782
778 782 780 781 781 779 776 769 762 763 771 779 780 780 783 788 794 800 800 794 792 795 793 793 782 749 734 741 740 737 738 735 735 738 732 728 728 730 731 730 728 727 727 727 727 728 728 728 728 728 729 730 730 731 732 733 735 736 737 738 740 741 742 744 746 748 750 752 754 755 756 758 759 761 763 764 766 767 768 769 770 772 775 776 777 779
769 776 777 776 774 773 769 766 765 764 764 769 773 772 773 778 785 790 793 789 789 789 783 788 783 746 727 737 735 729 731 727 726 729 727 725 725 727 729 726 727 728 727 726 727 728 728 727 726 726 727 728 729 730 731 731 732 733 734 735 737 738 739 741 743 745 747 748 750 751 752 755 756 758 760 761 762 763 764 766 767 770 771 772 773 775
769 774 777 776 772 770 770 771 772 770 769 771 774 773 772 772 772 773 775 775 779 782 779 788 787 748 722 731 733 727 727 726 723 723 723 724 722 724 726 724 724 726 725 726 727 727 727 727 726 726 726 727 728 728 730 730 731 732 732 733 734 735 736 738 740 742 744 745 746 747 749 751 753 755 756 757 758 759 761 763 764 766 767 768 770 771
765 768 772 775 773 772 773 775 776 776 775 771 766 767 765 763 766 769 771 772 774 773 772 782 779 744 719 726 733 730 729 729 728 726 727 726 722 722 725 724 724 725 723 723 724 723 725 724 724 725 724 725 726 727 728 729 729 730 731 732 733 733 735 736 738 739 740 741 743 744 746 747 749 751 752 753 755 756 758 759 761 762 763 765 766 767
757 759 762 764 764 763 760 760 760 763 769 767 761 761 760 758 762 765 767 771 770 764 762 767 760 734 719 728 733 731 731 730 727 728 729 728 725 725 724 722 721 721 719 719 719 720 721 722 722 723 723 723 724 725 726 727 727 728 729 730 731 732 733 734 735 736 737 738 739 740 742 743 745 746 748 749 751 752 754 756 757 758 760 761 763 764
755 756 755 754 751 745 742 743 744 744 754 762 759 757 755 752 751 754 760 763 758 756 756 752 744 732 723 726 729 728 728 728 724 724 726 725 723 722 722 719 718 718 717 717 719 720 719 720 720 720 721 721 722 723 724 724 725 725 726 727 728 729 730 732 733 733 734 736 736 737 739 740 742 743 745 747 748 750 751 753 754 755 757 758 760 761
751 751 750 752 747 738 738 744 745 742 746 752 751 749 749 748 749 753 755 749 745 754 754 741 739 739 723 715 722 724 723 725 722 721 721 719 717 717 719 720 719 719 719 719 719 718 717 717 717 718 719 719 719 720 721 721 722 723 723 724 725 726 727 729 730 731 732 733 734 735 736 738 740 741 743 744 746 747 749 750 752 753 754 756 757 758
751 747 741 744 743 737 739 745 746 743 743 745 746 746 746 746 748 748 744 737 736 745 741 728 732 735 716 708 717 717 715 718 716 714 716 714 713 716 718 719 718 717 717 716 716 715 716 715 714 715 717 718 718 717 718 718 719 720 721 721 722 724 724 726 727 728 730 731 731 732 734 736 738 739 741 742 743 745 747 748 750 751 752 754 755 756
750 746 739 742 743 737 737 743 746 745 744 745 746 747 746 748 749 746 740 734 732 734 731 725 729 729 713 706 710 709 712 716 714 713 716 715 714 715 715 716 715 713 712 711 711 711 712 712 712 714 716 717 716 715 715 716 716 717 718 719 720 721 722 723 725 726 727 728 729 731 733 735 736 737 739 740 742 744 745 746 748 749 751 752 753 754
743 738 735 742 747 741 737 741 746 746 744 742 742 742 743 747 750 750 746 740 738 739 733 727 729 725 708 698 704 709 712 715 714 715 715 715 714 713 712 712 710 708 708 707 707 709 710 711 712 714 715 714 713 712 713 713 714 715 716 717 718 719 720 722 723 724 725 726 728 730 731 733 734 736 738 739 741 742 743 744 746 747 748 749 750 751
740 735 732 739 744 737 733 737 741 744 747 744 740 741 742 742 745 747 743 737 735 736 733 732 732 719 699 694 704 710 710 710 711 712 712 712 712 711 709 708 706 705 705 705 706 708 709 710 711 711 711 711 710 710 710 711 712 714 714 714 716 717 718 720 721 722 723 725 727 728 730 732 733 735 737 738 739 740 741 743 744 745 746 747 748 750
738 735 732 737 739 730 726 732 737 743 745 737 732 734 735 734 736 739 738 732 728 728 730 730 720 704 696 701 706 707 707 706 705 706 706 706 707 708 707 705 705 704 702 702 703 705 706 707 708 707 707 707 706 706 707 708 710 711 711 712 714 715 716 717 718 720 721 723 725 726 728 730 732 734 735 736 738 739 740 741 742 743 744 746 747 748
736 733 729 731 731 725 725 733 740 740 729 714 712 718 720 722 726 730 731 727 722 721 721 716 706 700 703 704 698 698 703 701 697 698 700 701 703 705 706 705 704 702 701 701 701 702 703 704 704 704 703 702 702 702 704 707 708 708 709 710 712 713 714 715 716 718 719 721 723 725 727 729 730 732 734 735 736 737 738 740 741 742 743 744 745 746
734 734 733 731 726 722 728 736 736 725 710 703 706 708 709 712 716 722 725 721 719 721 721 717 709 700 697 693 689 694 701 700 697 697 697 697 698 698 700 701 701 700 699 699 698 699 701 701 700 700 699 699 699 700 702 704 705 706 707 708 709 710 711 713 714 715 717 719 720 723 725 726 728 730 731 733 735 736 737 738 739 740 742 743 744 745
730 730 731 730 725 722 728 731 720 706 704 710 710 706 709 714 717 723 728 722 716 716 715 714 706 693 690 691 691 695 699 699 699 698 694 693 692 692 694 696 696 696 693 690 691 693 694 694 694 695 695 695 696 696 698 700 702 703 704 705 707 708 709 710 711 713 714 716 718 720 722 724 726 728 729 731 733 734 736 737 737 739 740 741 742 743
732 728 725 725 721 717 720 720 710 702 705 710 708 703 704 706 708 715 719 710 702 702 705 708 704 696 693 690 688 693 698 700 701 695 686 687 689 687 688 688 687 688 686 683 685 687 688 689 690 690 691 691 692 692 693 696 698 700 702 703 704 705 707 708 709 710 711 713 715 717 719 721 723 725 727 729 731 732 734 735 736 737 737 739 740 741
733 730 728 726 719 715 716 715 711 709 704 699 698 696 693 692 693 701 709 701 690 691 699 701 697 690 685 683 687 697 704 707 702 685 673 680 686 686 686 685 684 684 683 680 681 682 683 685 686 686 688 689 690 690 690 693 695 697 699 700 701 703 705 705 706 707 709 710 712 714 717 719 721 723 725 726 728 730 731 733 734 734 735 737 738 739
735 734 734 731 724 721 721 715 710 707 697 690 690 690 692 693 690 698 713 704 682 680 691 693 690 684 679 683 693 702 708 710 695 672 666 677 684 684 685 683 680 680 679 677 677 678 678 679 681 683 686 688 688 688 689 691 693 695 696 697 699 701 702 701 702 703 705 707 709 712 714 716 718 719 721 723 725 727 728 730 731 732 733 735 736 737
736 736 736 733 727 723 723 717 709 702 694 691 692 689 691 692 690 701 715 700 674 674 684 685 684 679 676 686 697 701 703 698 679 665 669 676 676 677 678 675 673 675 675 674 673 673 674 676 679 680 682 682 683 684 686 688 690 692 693 694 696 698 697 696 697 699 702 704 707 709 711 713 715 717 718 720 722 723 725 727 728 729 731 732 733 735
732 733 733 730 727 725 723 718 711 702 692 690 691 689 689 693 698 704 701 684 671 672 675 676 678 675 676 688 694 690 685 677 666 666 672 671 669 671 670 667 668 670 670 668 668 670 672 674 674 675 676 676 677 680 683 685 686 688 689 691 693 693 692 693 695 697 700 702 705 707 709 711 713 714 716 718 720 721 722 723 725 726 728 729 731 732
725 727 728 727 725 725 722 718 714 703 689 684 688 690 689 694 701 696 682 672 672 672 669 671 674 673 675 683 682 676 671 666 665 668 669 668 668 667 664 664 666 666 665 664 665 668 670 670 671 672 672 673 675 677 679 681 682 683 686 688 688 687 689 691 693 695 697 700 702 705 707 709 711 713 715 716 718 719 720 721 722 724 725 727 728 729
714 717 721 720 717 718 719 718 714 703 688 683 690 694 690 688 690 686 677 673 675 675 673 674 673 673 675 674 671 667 665 664 665 666 665 665 665 662 660 663 664 663 662 662 663 665 666 667 668 668 667 669 672 674 675 676 678 679 682 683 682 684 687 689 690 693 695 697 700 702 704 707 709 711 713 714 715 717 718 719 721 722 723 725 726 728
704 706 709 708 706 710 714 711 701 692 687 685 686 687 685 681 680 683 683 681 679 680 680 677 675 676 676 672 668 665 663 663 663 662 662 662 661 659 659 661 662 661 660 659 660 661 663 664 664 664 665 667 668 670 672 673 674 676 677 677 678 682 685 687 689 691 693 696 698 700 703 705 708 710 712 713 714 716 717 719 720 722 723 724 725 726
695 696 698 698 696 697 698 693 684 681 684 684 681 680 681 679 679 682 684 683 682 681 679 677 675 674 674 675 673 669 667 666 663 660 660 658 657 657 658 658 659 659 658 657 658 659 659 660 660 661 662 663 664 666 667 668 670 671 671 672 675 679 681 683 686 689 691 694 696 699 701 704 706 709 711 712 714 715 716 718 720 722 723 724 725 726
693 694 694 694 693 692 688 684 682 681 682 682 681 680 681 679 677 678 679 680 680 679 678 677 674 670 670 674 674 671 668 667 665 663 661 659 658 657 656 656 657 657 657 656 656 656 657 658 658 659 660 660 661 662 662 664 665 665 666 668 672 675 677 680 683 686 689 692 694 697 700 703 705 708 710 711 713 714 716 718 719 721 723 724 725 726
695 695 695 694 696 696 689 681 678 678 679 681 681 680 679 678 678 679 679 678 677 676 675 674 673 670 669 671 673 671 667 665 665 663 661 660 658 655 653 653 653 653 653 652 651 652 654 655 656 657 657 656 656 657 658 660 661 663 665 667 670 672 675 678 681 685 688 690 693 696 698 700 703 706 707 709 711 714 716 717 718 720 722 723 724 725
696 696 695 693 694 695 688 679 678 680 681 682 684 683 681 680 680 680 678 676 675 675 674 672 672 670 668 667 669 669 665 663 663 662 660 657 655 652 649 648 648 647 647 646 646 648 649 649 650 650 650 651 651 653 655 657 659 662 664 666 668 671 673 677 680 683 686 689 691 694 696 699 701 703 705 707 710 712 714 716 716 718 720 721 722 723
700 700 696 692 693 693 687 680 680 683 682 679 680 681 680 679 678 676 675 674 673 672 671 669 668 667 664 663 664 665 664 661 659 660 658 654 651 649 646 643 643 644 643 643 644 644 644 645 645 645 646 648 650 652 655 656 658 660 662 664 666 668 671 675 679 682 685 688 690 692 695 697 699 701 703 705 708 712 714 715 716 716 718 720 721 722
701 699 695 695 697 694 685 677 678 681 678 673 674 675 675 676 677 675 672 671 669 668 667 665 663 660 659 659 659 661 662 659 656 656 656 652 649 647 645 643 643 643 642 643 643 644 644 644 644 646 647 649 650 653 654 656 658 659 661 663 665 666 669 673 677 681 684 687 689 691 693 695 698 699 701 704 707 711 713 715 716 716 717 719 720 721
698 694 692 694 694 687 677 672 675 678 675 671 671 672 672 673 673 671 668 665 663 662 662 661 659 655 653 653 654 657 658 656 654 653 652 650 647 646 645 644 642 641 641 642 642 643 644 644 644 645 647 649 650 652 654 655 657 659 661 663 665 666 668 672 675 679 682 684 687 689 691 693 695 697 699 702 706 709 712 713 714 716 717 718 719 721